Погода Остров Врангеля

Погода Остров Врангеля : погода сейчас, прогноз погоды и архив. Всё, что Вы хотите узнать о погоде Остров Врангеля!

Поиск расширенной информации на нашем сайте:

Другие новости

Новости СМИ2

Главная страница сайта

Новости сайта

03.07.2017

Напоминаем, что на нашем специализированном сайте Метеоцентр.Азия вы можете получить высокодетализированные автоматические прогнозы погоды по пунктам России, СНГ и мира в авиационном формате (включающие направление и скорость ветра, видимость, явления погоды, количество и форму облачности, нижнюю и верхнюю границу облачности).


Погода Остров Врангеля - сегодня

Время (UTC), дата Ветер
(°,м/с) 
Видим.   Явления Облачность Т
(°С)
Тd
(°С)
f(%) Тe
(°С)
Pmin
(гПа)
dP
(гПа)
Po
(мм)
O2
(г/м3)
Тmin Tmax R s Состояние
почвы
00 18.09.17 220 (ЮЗ) 3{07}  20000 м    9/5 600 м средняя, верхняя 
[Sc|Ac trans|Ci fib]
+2 -0.8 82 +1  1012.2  -0.1  757  303           
03 18.09.17 220 (ЮЗ) 3{06}  20000 м    9/8 600 м средняя 
[Sc|Ac trans]
+1 -0.6 89 -1  1012.1  -0.1  757  304           
09 18.09.17 320 (СЗ) 2{06}  20000 м    9/6 600 м средняя 
[Sc|Ac trans]
-0.6 -3.1 83 -1  1012.9  0.5  758  306           
12 18.09.17 330 (СЗ) 3{04}  20000 м    6/3 600 м средняя 
[Sc|Ac trans]
-2.3 -4.6 84 -4  1013.1  0.2  758  308           
15 18.09.17 310 (СЗ) 2{05}  20000 м    6/3 600 м средняя 
[Sc|Ac trans]
-2.2 -5 81 -3  1013.1  758  308           
18 18.09.17 320 (СЗ) 4{06}  20000 м    8/8 600 м 
[Sc]
-1.3 -4.1 81 -4  1013.6  0.5  758  307  -2.5        замёрзшая 
21 18.09.17 280 (З) 3{09}  20000 м    3/3 600 м 
[Sc]
+0.4 -4 72 -1  1014.7  1.1  759  306           
00 19.09.17 330 (СЗ) 2{06}  20000 м    3/3 600 м 
[Sc]
+0.8 -4.6 67 1015  0.4  759  306           
03 19.09.17 200 (Ю) 1{05}  20000 м    9/9 600 м 
[Sc]
+0.9 -3.6 72 +2  1015.7  0.6  760  306           
06 19.09.17 310 (СЗ) 3{05}  20000 м    10/10 600 м 
[Sc]
+0.6 -4.6 68 -1  1016.6  0.9  760  306    +1.8       
09 19.09.17 290 (З) 3{05}  20000 м    10/10 600 м 
[Sc]
+0.4 -4.6 69 -1  1017.2  0.6  761  307           
12 19.09.17 310 (СЗ) 4{06}  20000 м    10/10 600 м 
[Sc]
+0.3 -4.8 69 -2  1017.7  0.5  761  307           
15 19.09.17 290 (З) 1{05}  20000 м    10/10 600 м 
[Sc]
-0.5 -2.6 86 1018.1  0.4  762  308           
18 19.09.17 280 (З) 2{04}  20000 м    10/10 600 м 
[Sc]
-0.3 -3.7 78 -1  1018.6  0.5  762  308  -0.6        замёрзшая 
21 19.09.17 260 (З) 3{06}  20000 м    6/3 600 м средняя 
[Sc|Ac trans]
+0.9 -1.5 84 -1  1019.2  0.6  762  306  -0.7         
00 20.09.17 230 (ЮЗ) 7-10{11}  20000 м    10/10 600 м 
[Sc]
+0.6 -1.5 86 -3  1019.9  0.7  763  307           
03 20.09.17 240 (ЮЗ) 6{10}  20000 м    9/8 600 м средняя 
[Sc|Ac trans]
+2 -1.6 77 -1  1020.3  0.4  763  305           
06 20.09.17 250 (З) 3{10}  20000 м    6/5 600 м средняя 
[Sc|Ac trans]
-0.1 -1.7 89 -2  1021.1  0.8  764  308    +2       
09 20.09.17 290 (З) 3{07}  20000 м    8/5 600 м средняя 
[Sc|Ac trans]
-0.5 -1.7 92 -2  1022.3  1.2  765  309           
12 20.09.17 020 (С) 1{04}  20000 м    4/4 600 м 
[Sc]
-2.7 -3.5 94 -2  1022.4  0.1  765  312           
15 20.09.17 290 (З) 1{03}  20000 м    4/4 600 м 
[Sc]
-0.6 -2.1 90 1022.6  0.2  765  309           
18 20.09.17 040 (СВ) 2{02}  20000 м    10/10 600 м 
[Sc]
-0.1 -1.8 88 -1  1022.9  0.3  765  309  -3.2        замёрзшая 
21 20.09.17 170 (Ю) 5{07}  20000 м  {ливн. осадки}  8/0 средняя 
[Ac trans]
+1.8 -0.3 86 -1  1022.3  -0.6  765  306           
00 21.09.17 160 (Ю) 4{06}  20000 м  {ливн. осадки}  4/0 верхняя 
[Ci fib]
+2.8 +0.3 84 +1  1021.9  -0.4  764  305           
03 21.09.17 160 (Ю) 4{06}  20000 м    ясно 
+2.9 -0.2 80 +1  1021.6  -0.2  764  305           
Время (UTC), дата Ветер
(°,м/с) 
Видим.   Явления Облачность Т
(°С)
Тd
(°С)
f(%) Тe
(°С)
Pmin
(гПа)
dP
(гПа)
Po
(мм)
O2
(г/м3)
Тmin Tmax R s Состояние
почвы

Для получения пояснительной информации подведите курсор к названию столбца.

ПОГОДА Остров Врангеля - архив

Всё, что Вы хотите узнать о погоде Остров Врангеля - удобно и подробно!

Выберите нужную дату (начиная с 1 января 2015* года) и нажмите кнопку "Найти".
Будут отображены архивные сводки погоды по пункту Остров Врангеля, начиная с указанной даты.


Отображать данные в формате CSV (для использования в таблицах Excel)


Внимание! Наш архив погоды предназначен исключительно для личного некоммерческого использования в познавательных целях. Если Вам необходимы официальные справки о состоянии погоды (для производственных, юридических, коммерческих и т.п. целей), обращайтесь в органы Росгидромета.

*Примечание: данная дата относится к архиву по метеостанциям СССР (Россия, СНГ, Балтия).
Архив по метеостанциям Зарубежной Европы и Азии (кроме Китая) хранится 10 дней, по другим регионам земного шара (Китай, Африка, Америка, Австралия, Океания) - 1 день.

Остров Врангеля - район местоположения метеостанции


Название, широта, долгота, высота метеостанции:
Остров Врангеля 71°ш. -178.5°д. 5 м над ур. моря [Российская Федерация]

Дополнительная информация

В oтличие oт бoльшинства пoгoдных сайтoв мы публикуем пoдрoбную метеoинфoрмацию в детальнoм прoфессиoнальнoм фoрмате.

Характеристики температуры и влажнoсти вoздуха измеряются на высoте 2 м в тени вдали oт зданий и деревьев.
Скoрoсть ветра измеряется на высoте 10 м (на урoвне рoста челoвека скoрoсть ветра ниже в 1.5-2 раза). Если метеoстанция нахoдится в гoрoде или в лесу, тo скoрoсть ветра занижена на 2-4 м/с пo сравнению с oткрытым местoм. Скoрoсть ветра над акватoриями крупных рек и oзёр, а также на вершинах хoлмoв на 2-5 м/с выше, чем в oбычных услoвиях.
Атмoсфернoе давление в разных тoчках местнoсти мoжет значительнo oтличаться oт давления на метеoстанции, в зависимoсти oт услoвий рельефа (при пoдъёме на 10 м давление пoнижается примернo на 1 мм рт.ст.).